Location: Peterborough
(44.3091°N, 78.3197°W)
Time: 05:35:16
(UTC-04:00)

A-11 Canister half - Pass Details

Date: 27 March 2023
Orbit: 1513 x 1686 km, 47.2° (Epoch: 04 June)

Event Time Altitude Azimuth Distance (km) Brightness Sun altitude
Rises 22:12:34 0° 235° (SW) 4,782 11.8 -27.2°
Reaches altitude 10° 22:15:38 10° 233° (SW) 3,821 11.2 -27.7°
Maximum altitude 22:25:22 74° 151° (SSE) 1,708 8.9 -29.0°
Enters shadow 22:30:15 36° 76° (ENE) 2,444 9.7 -29.7°
